| time (UTC) | temp C | wind direction | speed KPH | gust KPH | rain 1hr cm | rain 24hr cm | rain mn cm | humidity % | barometer mb |
| 20260502163042 | 17 | 26 | 3.2 | 8.0 | 0.00 | 0.00 | 0.00 | 21 | 1016.7 |
| 20260502161554 | 16 | 27 | 4.8 | 9.7 | 0.00 | 0.00 | 0.00 | 22 | 1016.7 |
| 20260502151522 | 14 | 176 | 4.8 | 9.7 | 0.00 | 0.00 | 0.00 | 22 | 1017.0 |
| 20260502130121 | 7 | 176 | 6.4 | 12.9 | 0.00 | 0.00 | 0.00 | 30 | 1015.8 |
| 20260502123122 | 6 | 114 | 4.8 | 9.7 | 0.00 | 0.00 | 0.00 | 34 | 1015.2 |
| 20260502121554 | 5 | 102 | 6.4 | 9.7 | 0.00 | 0.00 | 0.00 | 36 | 1015.1 |
| 20260502120109 | 5 | 74 | 4.8 | 8.0 | 0.00 | 0.00 | 0.00 | 37 | 1014.9 |
| 20260502114554 | 5 | 348 | 1.6 | 4.8 | 0.00 | 0.00 | 0.00 | 45 | 1014.9 |
| 20260502113050 | 5 | 348 | 0.0 | 0.0 | 0.00 | 0.00 | 0.00 | 42 | 1014.9 |
| 20260502111547 | 5 | 348 | 0.0 | 1.6 | 0.00 | 0.00 | 0.00 | 43 | 1014.8 |
| 20260502110049 | 5 | 348 | 0.0 | 0.0 | 0.00 | 0.00 | 0.00 | 38 | 1014.7 |
| 20260502104542 | 5 | 348 | 0.0 | 0.0 | 0.00 | 0.00 | 0.00 | 42 | 1014.8 |
| 20260502103039 | 5 | 348 | 0.0 | 0.0 | 0.00 | 0.00 | 0.00 | 35 | 1014.7 |
| 20260502101548 | 6 | 348 | 0.0 | 0.0 | 0.00 | 0.00 | 0.00 | 32 | 1014.6 |
| 20260502091530 | 6 | 347 | 1.6 | 4.8 | 0.00 | 0.00 | 0.00 | 42 | 1013.8 |
| 20260502071510 | 9 | 347 | 0.0 | 0.0 | 0.00 | 0.00 | 0.00 | 37 | 1013.5 |
| 20260502070005 | 10 | 347 | 0.0 | 0.0 | 0.00 | 0.00 | 0.00 | 38 | 1013.5 |
| 20260502064504 | 10 | 347 | 0.0 | 1.6 | 0.00 | 0.00 | 0.00 | 28 | 1013.4 |
| 20260502063102 | 11 | 347 | 0.0 | 1.6 | 0.00 | 0.00 | 0.00 | 30 | 1013.3 |
| 20260502061600 | 10 | 347 | 0.0 | 3.2 | 0.00 | 0.00 | 0.00 | 31 | 1013.2 |
| 20260502060109 | 10 | 347 | 0.0 | 0.0 | 0.00 | 0.00 | 0.00 | 25 | 1013.1 |
| 20260502054555 | 11 | 347 | 0.0 | 0.0 | 0.00 | 0.00 | 0.00 | 26 | 1012.9 |
| 20260502053054 | 11 | 347 | 0.0 | 1.6 | 0.00 | 0.00 | 0.00 | 24 | 1012.8 |
| 20260502051600 | 11 | 347 | 0.0 | 0.0 | 0.00 | 0.00 | 0.00 | 23 | 1012.7 |
| 20260502050057 | 12 | 347 | 0.0 | 0.0 | 0.00 | 0.00 | 0.00 | 25 | 1012.7 |
| 20260502044553 | 12 | 347 | 0.0 | 0.0 | 0.00 | 0.00 | 0.00 | 21 | 1012.6 |
| 20260502043058 | 13 | 347 | 0.0 | 0.0 | 0.00 | 0.00 | 0.00 | 22 | 1012.5 |
| 20260502041555 | 13 | 347 | 0.0 | 0.0 | 0.00 | 0.00 | 0.00 | 22 | 1012.4 |
| 20260502034558 | 15 | 347 | 0.0 | 0.0 | 0.00 | 0.00 | 0.00 | 23 | 1012.0 |
| 20260502033050 | 15 | 347 | 0.0 | 0.0 | 0.00 | 0.00 | 0.00 | 20 | 1011.7 |
| 20260502031550 | 16 | 347 | 0.0 | 0.0 | 0.00 | 0.00 | 0.00 | 18 | 1011.5 |
| 20260502030050 | 16 | 347 | 0.0 | 6.4 | 0.00 | 0.00 | 0.00 | 19 | 1011.2 |
| 20260502024607 | 17 | 347 | 3.2 | 9.7 | 0.00 | 0.00 | 0.00 | 18 | 1010.9 |
| 20260502023049 | 17 | 344 | 8.0 | 14.5 | 0.00 | 0.00 | 0.00 | 17 | 1010.7 |
| 20260502021552 | 18 | 345 | 6.4 | 17.7 | 0.00 | 0.00 | 0.00 | 15 | 1010.5 |
| 20260502020050 | 18 | 360 | 11.3 | 17.7 | 0.00 | 0.00 | 0.00 | 15 | 1010.2 |
| 20260502014547 | 19 | 12 | 11.3 | 19.3 | 0.00 | 0.00 | 0.00 | 15 | 1010.2 |
| 20260502013046 | 20 | 5 | 14.5 | 22.5 | 0.00 | 0.00 | 0.00 | 13 | 1009.9 |
| 20260502011546 | 20 | 355 | 12.9 | 27.4 | 0.00 | 0.00 | 0.00 | 13 | 1009.8 |
| 20260502010052 | 20 | 14 | 17.7 | 29.0 | 0.00 | 0.00 | 0.00 | 13 | 1009.6 |
| 20260502004558 | 21 | 11 | 19.3 | 29.0 | 0.00 | 0.00 | 0.00 | 13 | 1009.4 |
| 20260502003044 | 21 | 346 | 20.9 | 32.2 | 0.00 | 0.00 | 0.00 | 13 | 1009.4 |
| 20260502001543 | 21 | 342 | 16.1 | 33.8 | 0.00 | 0.00 | 0.00 | 12 | 1009.6 |
| 20260502000043 | 21 | 344 | 22.5 | 30.6 | 0.00 | 0.00 | 0.00 | 12 | 1009.4 |
| 20260501234542 | 21 | 12 | 14.5 | 30.6 | 0.00 | 0.00 | 0.00 | 12 | 1009.4 |
| 20260501233044 | 21 | 346 | 12.9 | 22.5 | 0.00 | 0.00 | 0.00 | 13 | 1009.5 |
| 20260501231539 | 21 | 331 | 17.7 | 30.6 | 0.00 | 0.00 | 0.00 | 12 | 1009.5 |
| 20260501230038 | 21 | 331 | 16.1 | 29.0 | 0.00 | 0.00 | 0.00 | 12 | 1009.6 |
| 20260501224541 | 21 | 18 | 19.3 | 27.4 | 0.00 | 0.00 | 0.00 | 11 | 1009.6 |
| 20260501223035 | 21 | 340 | 14.5 | 37.0 | 0.00 | 0.00 | 0.00 | 13 | 1009.9 |
| 20260501221533 | 21 | 319 | 6.4 | 27.4 | 0.00 | 0.00 | 0.00 | 13 | 1010.0 |
| 20260501220036 | 21 | 338 | 6.4 | 14.5 | 0.00 | 0.00 | 0.00 | 14 | 1010.2 |
| 20260501214529 | 21 | 281 | 9.7 | 19.3 | 0.00 | 0.00 | 0.00 | 14 | 1010.2 |
| 20260501213040 | 21 | 349 | 8.0 | 22.5 | 0.00 | 0.00 | 0.00 | 14 | 1010.6 |
| 20260501211526 | 20 | 22 | 1.6 | 17.7 | 0.00 | 0.00 | 0.00 | 16 | 1010.8 |
| 20260501210036 | 20 | 16 | 4.8 | 25.7 | 0.00 | 0.00 | 0.00 | 15 | 1010.8 |
| 20260501204525 | 20 | 59 | 4.8 | 25.7 | 0.00 | 0.00 | 0.00 | 16 | 1010.9 |
| 20260501203018 | 20 | 262 | 6.4 | 19.3 | 0.00 | 0.00 | 0.00 | 16 | 1011.1 |
| 20260501201520 | 20 | 290 | 19.3 | 30.6 | 0.00 | 0.00 | 0.00 | 16 | 1011.2 |
| 20260501200019 | 20 | 13 | 6.4 | 22.5 | 0.00 | 0.00 | 0.00 | 16 | 1011.3 |
| 20260501194519 | 20 | 331 | 6.4 | 16.1 | 0.00 | 0.00 | 0.00 | 16 | 1011.5 |
| 20260501193011 | 20 | 276 | 4.8 | 14.5 | 0.00 | 0.00 | 0.00 | 17 | 1011.6 |
| 20260501191510 | 18 | 130 | 6.4 | 17.7 | 0.00 | 0.00 | 0.00 | 17 | 1011.8 |
| 20260501190009 | 18 | 42 | 3.2 | 19.3 | 0.00 | 0.00 | 0.00 | 18 | 1011.9 |
| 20260501184508 | 19 | 261 | 8.0 | 17.7 | 0.00 | 0.00 | 0.00 | 18 | 1012.0 |
| 20260501183005 | 18 | 213 | 8.0 | 20.9 | 0.00 | 0.00 | 0.00 | 19 | 1012.3 |
| 20260501181501 | 18 | 300 | 9.7 | 14.5 | 0.00 | 0.00 | 0.00 | 19 | 1012.6 |
| 20260501180114 | 17 | 37 | 6.4 | 20.9 | 0.00 | 0.00 | 0.00 | 19 | 1012.6 |
| 20260501174558 | 17 | 360 | 9.7 | 17.7 | 0.00 | 0.00 | 0.00 | 19 | 1012.6 |